Вернуться в каталог

STARLINK-3632

АктивенСвязьVLEO
NORAD 51784·PAYLOAD·🇺🇸 United States

Запущен Feb 25, 2022 с Vandenberg Space Force Base

Loading…

Ближайшие Пролёты (ближайшие 24 часа)

TLE

СвежийSource: CelesTrak SupGP

Эпоха: Sep 15, 2026, 02:44 UTC

1 51784C 22017S   26258.11437500 -.00026473  00000+0 -78225-3 0  2589
2 51784  53.1580 203.2395 0001468  88.7640  13.2504 15.34399880    11

Отслеживайте STARLINK-3632 в реальном времени с AllMySat

Download on the App Store